sat.trackr.live / text

‹ back to catalog

FLOCK 4H-11

NORAD 66714 · 2025-276BA

PAYLOAD ACTIVE UNKNOWN

§ Identity

Operator
Country
US
Launch date
2025-11-28
Launch site
AFWTR
Launch vehicle
Mass (kg)
RCS (m²)

Purposes: earth_obs

External: N2YO · Heavens-Above · Gunter

§ Orbital elements

Epoch: 2026-05-25T03:49:24.320064Z

Period
94.62 min
Inclination
97.4205°
Eccentricity
0.0004497
Mean motion
15.21895300 rev/d
Perigee alt
497.0 km
Apogee alt
503.2 km
Semi-major
6,878.3 km
B*
5.9636e-4
RAAN
219.4063°
Arg perigee
100.8004°
Mean anomaly
259.3738°
Rev number
2,694

§ Raw data

FLOCK 4H-111 66714U 25276BA  26145.15930926  .00013522  00000+0  59636-3 0  99932 66714  97.4205 219.4063 0004497 100.8004 259.3738 15.21895300 26947

JSON: /api/v1/satellites/66714 · /tle

For live sub-satellite position, see the globe view (requires WebGL).

§ Visibility from observer

Set your observer location to see the next 7 days of passes ≥ 10°. The values pass through the URL so the page stays shareable.

No JS? Fill the form by hand. The geolocation button needs JavaScript.